owner,sensor,date,latitude,longitude,vertical_datum,wind_speed,wind_to_direction,wind_speed_of_gust,qcFlag 
LOOP,urn:ioos:station:wmo:lopl1:1,2013-07-01T00:01:00Z,28.8850,-90.0250,10.0,4.4,286.0,6.6,'11111222,11111222,11111222' 
LOOP,urn:ioos:station:wmo:lopl1:1,2013-07-01T00:16:00Z,28.8850,-90.0250,10.0,5.0,286.0,7.0,'11111222,11111222,11111222' 
LOOP,urn:ioos:station:wmo:lopl1:1,2013-07-01T00:31:00Z,28.8850,-90.0250,10.0,4.6,281.0,6.0,'11111222,11111222,11111222' 
LOOP,urn:ioos:station:wmo:lopl1:1,2013-07-01T00:46:00Z,28.8850,-90.0250,10.0,3.8,311.0,6.3,'11111222,11111222,11111222' 
LOOP,urn:ioos:station:wmo:lopl1:1,2013-07-01T01:01:00Z,28.8850,-90.0250,10.0,7.4,333.0,8.8,'11111222,11111222,11111222' 
LOOP,urn:ioos:station:wmo:lopl1:1,2013-07-01T01:16:00Z,28.8850,-90.0250,10.0,7.1,338.0,9.4,'11111222,11111222,11111222' 
LOOP,urn:ioos:station:wmo:lopl1:1,2013-07-01T01:31:00Z,28.8850,-90.0250,10.0,7.0,345.0,9.5,'11111222,11111222,11111222' 
LOOP,urn:ioos:station:wmo:lopl1:1,2013-07-01T01:46:00Z,28.8850,-90.0250,10.0,6.7,341.0,9.6,'11111222,11111222,11111222' 
LOOP,urn:ioos:station:wmo:lopl1:1,2013-07-01T02:01:00Z,28.8850,-90.0250,10.0,6.3,339.0,9.3,'11111222,11111222,11111222' 
LOOP,urn:ioos:station:wmo:lopl1:1,2013-07-01T02:16:00Z,28.8850,-90.0250,10.0,4.1,354.0,6.0,'11111222,11111222,11111222' 
LOOP,urn:ioos:station:wmo:lopl1:1,2013-07-01T02:31:00Z,28.8850,-90.0250,10.0,3.6,345.0,5.1,'11111222,11111222,11111222' 
LOOP,urn:ioos:station:wmo:lopl1:1,2013-07-01T02:46:00Z,28.8850,-90.0250,10.0,3.8,338.0,5.7,'11111222,11111222,11111222' 
LOOP,urn:ioos:station:wmo:lopl1:1,2013-07-01T03:01:00Z,28.8850,-90.0250,10.0,3.7,351.0,5.3,'11111222,11111222,11111222' 
LOOP,urn:ioos:station:wmo:lopl1:1,2013-07-01T03:16:00Z,28.8850,-90.0250,10.0,3.3,359.0,5.1,'11111222,11111222,11111222' 
LOOP,urn:ioos:station:wmo:lopl1:1,2013-07-01T03:36:00Z,28.8850,-90.0250,10.0,3.5,344.0,5.3,'11111222,11111222,11111222' 
LOOP,urn:ioos:station:wmo:lopl1:1,2013-07-01T03:51:00Z,28.8850,-90.0250,10.0,3.3,346.0,4.8,'11111222,11111222,11111222' 
LOOP,urn:ioos:station:wmo:lopl1:1,2013-07-01T04:06:00Z,28.8850,-90.0250,10.0,3.2,342.0,4.9,'11111222,11111222,11111222' 
LOOP,urn:ioos:station:wmo:lopl1:1,2013-07-01T04:21:00Z,28.8850,-90.0250,10.0,3.2,352.0,5.4,'11111222,11111222,11111222' 
LOOP,urn:ioos:station:wmo:lopl1:1,2013-07-01T04:36:00Z,28.8850,-90.0250,10.0,2.9,355.0,4.4,'11111222,11111222,11111222' 
LOOP,urn:ioos:station:wmo:lopl1:1,2013-07-01T04:51:00Z,28.8850,-90.0250,10.0,3.1,347.0,4.6,'11111222,11111222,11111222' 
LOOP,urn:ioos:station:wmo:lopl1:1,2013-07-01T05:06:00Z,28.8850,-90.0250,10.0,3.3,353.0,5.3,'11111222,11111222,11111222' 
LOOP,urn:ioos:station:wmo:lopl1:1,2013-07-01T05:21:00Z,28.8850,-90.0250,10.0,3.1,351.0,4.2,'11111222,11111222,11111222' 
LOOP,urn:ioos:station:wmo:lopl1:1,2013-07-01T05:36:00Z,28.8850,-90.0250,10.0,3.3,347.0,5.3,'11111222,11111222,11111222' 
LOOP,urn:ioos:station:wmo:lopl1:1,2013-07-01T05:51:00Z,28.8850,-90.0250,10.0,3.0,348.0,4.4,'11111222,11111222,11111222' 
LOOP,urn:ioos:station:wmo:lopl1:1,2013-07-01T06:06:00Z,28.8850,-90.0250,10.0,3.1,359.0,5.1,'11111222,11111222,11111222' 
LOOP,urn:ioos:station:wmo:lopl1:1,2013-07-01T06:21:00Z,28.8850,-90.0250,10.0,5.0,8.0,6.6,'11111222,11111222,11111222' 
LOOP,urn:ioos:station:wmo:lopl1:1,2013-07-01T06:36:00Z,28.8850,-90.0250,10.0,5.5,7.0,7.0,'11111222,11111222,11111222' 
LOOP,urn:ioos:station:wmo:lopl1:1,2013-07-01T06:51:00Z,28.8850,-90.0250,10.0,4.9,12.0,5.9,'11111222,11111222,11111222' 
LOOP,urn:ioos:station:wmo:lopl1:1,2013-07-01T07:06:00Z,28.8850,-90.0250,10.0,4.9,24.0,6.2,'11111222,11111222,11111222' 
LOOP,urn:ioos:station:wmo:lopl1:1,2013-07-01T07:26:00Z,28.8850,-90.0250,10.0,4.7,30.0,5.7,'11111222,11111222,11111222' 
LOOP,urn:ioos:station:wmo:lopl1:1,2013-07-01T07:41:00Z,28.8850,-90.0250,10.0,5.0,34.0,5.9,'11111222,11111222,11111222' 
LOOP,urn:ioos:station:wmo:lopl1:1,2013-07-01T07:56:00Z,28.8850,-90.0250,10.0,5.2,21.0,6.5,'11111222,11111222,11111222' 
LOOP,urn:ioos:station:wmo:lopl1:1,2013-07-01T08:11:00Z,28.8850,-90.0250,10.0,4.9,25.0,6.0,'11111222,11111222,11111222' 
LOOP,urn:ioos:station:wmo:lopl1:1,2013-07-01T08:26:00Z,28.8850,-90.0250,10.0,5.0,22.0,5.9,'11111222,11111222,11111222' 
LOOP,urn:ioos:station:wmo:lopl1:1,2013-07-01T08:41:00Z,28.8850,-90.0250,10.0,4.7,26.0,5.5,'11111222,11111222,11111222' 
LOOP,urn:ioos:station:wmo:lopl1:1,2013-07-01T08:56:00Z,28.8850,-90.0250,10.0,4.4,31.0,5.1,'11111222,11111222,11111222' 
LOOP,urn:ioos:station:wmo:lopl1:1,2013-07-01T09:11:00Z,28.8850,-90.0250,10.0,4.3,22.0,5.0,'11111222,11111222,11111222' 
LOOP,urn:ioos:station:wmo:lopl1:1,2013-07-01T09:26:00Z,28.8850,-90.0250,10.0,4.4,22.0,5.1,'11111222,11111222,11111222' 
LOOP,urn:ioos:station:wmo:lopl1:1,2013-07-01T09:41:00Z,28.8850,-90.0250,10.0,4.0,22.0,4.7,'11111222,11111222,11111222' 
LOOP,urn:ioos:station:wmo:lopl1:1,2013-07-01T09:56:00Z,28.8850,-90.0250,10.0,3.6,27.0,4.5,'11111222,11111222,11111222' 
LOOP,urn:ioos:station:wmo:lopl1:1,2013-07-01T10:11:00Z,28.8850,-90.0250,10.0,3.5,14.0,4.3,'11111222,11111222,11111222' 
LOOP,urn:ioos:station:wmo:lopl1:1,2013-07-01T10:26:00Z,28.8850,-90.0250,10.0,3.6,12.0,4.3,'11111222,11111222,11111222' 
LOOP,urn:ioos:station:wmo:lopl1:1,2013-07-01T10:41:00Z,28.8850,-90.0250,10.0,3.6,8.0,4.5,'11111222,11111222,11111222' 
LOOP,urn:ioos:station:wmo:lopl1:1,2013-07-01T10:56:00Z,28.8850,-90.0250,10.0,3.5,14.0,4.2,'11111222,11111222,11111222' 
LOOP,urn:ioos:station:wmo:lopl1:1,2013-07-01T11:11:00Z,28.8850,-90.0250,10.0,4.5,9.0,5.3,'11111222,11111222,11111222' 
LOOP,urn:ioos:station:wmo:lopl1:1,2013-07-01T11:26:00Z,28.8850,-90.0250,10.0,4.9,3.0,6.1,'11111222,11111222,11111222' 
LOOP,urn:ioos:station:wmo:lopl1:1,2013-07-01T11:41:00Z,28.8850,-90.0250,10.0,4.8,17.0,6.0,'11111222,11111222,11111222' 
LOOP,urn:ioos:station:wmo:lopl1:1,2013-07-01T11:56:00Z,28.8850,-90.0250,10.0,4.6,8.0,5.5,'11111222,11111222,11111222' 
LOOP,urn:ioos:station:wmo:lopl1:1,2013-07-01T12:11:00Z,28.8850,-90.0250,10.0,4.4,9.0,5.3,'11111222,11111222,11111222' 
LOOP,urn:ioos:station:wmo:lopl1:1,2013-07-01T12:26:00Z,28.8850,-90.0250,10.0,4.5,9.0,5.6,'11111222,11111222,11111222' 
LOOP,urn:ioos:station:wmo:lopl1:1,2013-07-01T12:41:00Z,28.8850,-90.0250,10.0,5.0,30.0,5.9,'11111222,11111222,11111222' 
LOOP,urn:ioos:station:wmo:lopl1:1,2013-07-01T12:56:00Z,28.8850,-90.0250,10.0,5.3,10.0,6.3,'11111222,11111222,11111222' 
LOOP,urn:ioos:station:wmo:lopl1:1,2013-07-01T13:11:00Z,28.8850,-90.0250,10.0,5.3,14.0,6.4,'11111222,11111222,11111222' 
LOOP,urn:ioos:station:wmo:lopl1:1,2013-07-01T13:26:00Z,28.8850,-90.0250,10.0,4.8,13.0,5.8,'11111222,11111222,11111222' 
LOOP,urn:ioos:station:wmo:lopl1:1,2013-07-01T13:41:00Z,28.8850,-90.0250,10.0,5.0,13.0,6.4,'11111222,11111222,11111222' 
LOOP,urn:ioos:station:wmo:lopl1:1,2013-07-01T13:56:00Z,28.8850,-90.0250,10.0,4.7,8.0,5.7,'11111222,11111222,11111222' 
LOOP,urn:ioos:station:wmo:lopl1:1,2013-07-01T14:11:00Z,28.8850,-90.0250,10.0,4.6,14.0,5.9,'11111222,11111222,11111222' 
LOOP,urn:ioos:station:wmo:lopl1:1,2013-07-01T14:26:00Z,28.8850,-90.0250,10.0,5.0,27.0,6.0,'11111222,11111222,11111222' 
LOOP,urn:ioos:station:wmo:lopl1:1,2013-07-01T14:41:00Z,28.8850,-90.0250,10.0,4.8,21.0,6.0,'11111222,11111222,11111222' 
LOOP,urn:ioos:station:wmo:lopl1:1,2013-07-01T14:56:00Z,28.8850,-90.0250,10.0,4.1,14.0,5.4,'11111222,11111222,11111222' 
LOOP,urn:ioos:station:wmo:lopl1:1,2013-07-01T15:11:00Z,28.8850,-90.0250,10.0,3.9,11.0,5.1,'11111222,11111222,11111222' 
LOOP,urn:ioos:station:wmo:lopl1:1,2013-07-01T15:26:00Z,28.8850,-90.0250,10.0,4.3,18.0,5.3,'11111222,11111222,11111222' 
LOOP,urn:ioos:station:wmo:lopl1:1,2013-07-01T15:41:00Z,28.8850,-90.0250,10.0,4.0,10.0,4.9,'11111222,11111222,11111222' 
LOOP,urn:ioos:station:wmo:lopl1:1,2013-07-01T15:56:00Z,28.8850,-90.0250,10.0,4.0,8.0,5.1,'11111222,11111222,11111222' 
LOOP,urn:ioos:station:wmo:lopl1:1,2013-07-01T16:11:00Z,28.8850,-90.0250,10.0,3.6,11.0,4.7,'11111222,11111222,11111222' 
LOOP,urn:ioos:station:wmo:lopl1:1,2013-07-01T16:26:00Z,28.8850,-90.0250,10.0,3.1,10.0,3.8,'11111222,11111222,11111222' 
LOOP,urn:ioos:station:wmo:lopl1:1,2013-07-01T16:41:00Z,28.8850,-90.0250,10.0,2.7,14.0,3.9,'11111222,11111222,11111222' 
LOOP,urn:ioos:station:wmo:lopl1:1,2013-07-01T16:56:00Z,28.8850,-90.0250,10.0,2.8,359.0,4.2,'11111222,11111222,11111222' 
LOOP,urn:ioos:station:wmo:lopl1:1,2013-07-01T17:11:00Z,28.8850,-90.0250,10.0,2.9,4.0,3.8,'11111222,11111222,11111222' 
LOOP,urn:ioos:station:wmo:lopl1:1,2013-07-01T17:26:00Z,28.8850,-90.0250,10.0,2.6,7.0,3.6,'11111222,11111222,11111222' 
LOOP,urn:ioos:station:wmo:lopl1:1,2013-07-01T17:41:00Z,28.8850,-90.0250,10.0,3.2,7.0,4.0,'11111222,11111222,11111222' 
LOOP,urn:ioos:station:wmo:lopl1:1,2013-07-01T17:56:00Z,28.8850,-90.0250,10.0,3.0,0.0,4.3,'11111222,11111222,11111222' 
LOOP,urn:ioos:station:wmo:lopl1:1,2013-07-01T18:11:00Z,28.8850,-90.0250,10.0,3.2,12.0,4.0,'11111222,11111222,11111222' 
LOOP,urn:ioos:station:wmo:lopl1:1,2013-07-01T18:26:00Z,28.8850,-90.0250,10.0,2.8,12.0,4.3,'11111222,11111222,11111222' 
LOOP,urn:ioos:station:wmo:lopl1:1,2013-07-01T18:41:00Z,28.8850,-90.0250,10.0,3.4,9.0,4.4,'11111222,11111222,11111222' 
LOOP,urn:ioos:station:wmo:lopl1:1,2013-07-01T18:56:00Z,28.8850,-90.0250,10.0,2.9,10.0,3.8,'11111222,11111222,11111222' 
LOOP,urn:ioos:station:wmo:lopl1:1,2013-07-01T19:11:00Z,28.8850,-90.0250,10.0,2.8,8.0,3.8,'11111222,11111222,11111222' 
LOOP,urn:ioos:station:wmo:lopl1:1,2013-07-01T19:26:00Z,28.8850,-90.0250,10.0,2.9,20.0,3.6,'11111222,11111222,11111222' 
LOOP,urn:ioos:station:wmo:lopl1:1,2013-07-01T19:46:00Z,28.8850,-90.0250,10.0,2.4,22.0,3.1,'11111222,11111222,11111222' 
LOOP,urn:ioos:station:wmo:lopl1:1,2013-07-01T20:01:00Z,28.8850,-90.0250,10.0,2.2,7.0,2.9,'11111222,11111222,11111222' 
LOOP,urn:ioos:station:wmo:lopl1:1,2013-07-01T20:16:00Z,28.8850,-90.0250,10.0,2.8,10.0,3.8,'11111222,11111222,11111222' 
LOOP,urn:ioos:station:wmo:lopl1:1,2013-07-01T20:31:00Z,28.8850,-90.0250,10.0,2.2,347.0,3.3,'11111222,11111222,11111222' 
LOOP,urn:ioos:station:wmo:lopl1:1,2013-07-01T20:46:00Z,28.8850,-90.0250,10.0,1.2,1.0,2.3,'11111222,11111222,11111222' 
LOOP,urn:ioos:station:wmo:lopl1:1,2013-07-01T21:01:00Z,28.8850,-90.0250,10.0,1.5,334.0,2.8,'11111222,11111222,11111222' 
LOOP,urn:ioos:station:wmo:lopl1:1,2013-07-01T21:16:00Z,28.8850,-90.0250,10.0,1.6,327.0,2.8,'11111222,11111222,11111222' 
LOOP,urn:ioos:station:wmo:lopl1:1,2013-07-01T21:31:00Z,28.8850,-90.0250,10.0,1.2,337.0,2.0,'11111222,11111222,11111222' 
LOOP,urn:ioos:station:wmo:lopl1:1,2013-07-01T21:46:00Z,28.8850,-90.0250,10.0,0.6,324.0,1.2,'11111222,11111222,11111222' 
LOOP,urn:ioos:station:wmo:lopl1:1,2013-07-01T22:01:00Z,28.8850,-90.0250,10.0,0.8,276.0,1.5,'11111222,11111222,11111222' 
LOOP,urn:ioos:station:wmo:lopl1:1,2013-07-01T22:16:00Z,28.8850,-90.0250,10.0,1.0,-9999.0,2.1,'11111222,99999999,11111222' 
LOOP,urn:ioos:station:wmo:lopl1:1,2013-07-01T22:31:00Z,28.8850,-90.0250,10.0,2.2,-9999.0,3.0,'11111222,99999999,11111222' 
LOOP,urn:ioos:station:wmo:lopl1:1,2013-07-01T22:46:00Z,28.8850,-90.0250,10.0,1.3,-9999.0,2.4,'11111222,99999999,11111222' 
LOOP,urn:ioos:station:wmo:lopl1:1,2013-07-01T23:01:00Z,28.8850,-90.0250,10.0,0.9,275.0,2.4,'11111222,11111222,11111222' 
LOOP,urn:ioos:station:wmo:lopl1:1,2013-07-01T23:16:00Z,28.8850,-90.0250,10.0,0.8,-9999.0,1.7,'11111222,99999999,11111222' 
LOOP,urn:ioos:station:wmo:lopl1:1,2013-07-01T23:31:00Z,28.8850,-90.0250,10.0,1.0,-9999.0,1.8,'11111222,99999999,11111222' 
LOOP,urn:ioos:station:wmo:lopl1:1,2013-07-01T23:46:00Z,28.8850,-90.0250,10.0,1.7,-9999.0,3.3,'11111222,99999999,11111222' 
LOOP,urn:ioos:station:wmo:lopl1:1,2013-07-02T00:01:00Z,28.8850,-90.0250,10.0,2.1,290.0,2.9,'11111222,11111222,11111222' 
LOOP,urn:ioos:station:wmo:lopl1:1,2013-07-02T00:16:00Z,28.8850,-90.0250,10.0,1.9,306.0,2.6,'11111222,11111222,11111222' 
LOOP,urn:ioos:station:wmo:lopl1:1,2013-07-02T00:31:00Z,28.8850,-90.0250,10.0,2.0,285.0,2.7,'11111222,11111222,11111222' 
LOOP,urn:ioos:station:wmo:lopl1:1,2013-07-02T00:46:00Z,28.8850,-90.0250,10.0,1.3,295.0,2.3,'11111222,11111222,11111222' 
LOOP,urn:ioos:station:wmo:lopl1:1,2013-07-02T01:01:00Z,28.8850,-90.0250,10.0,1.4,269.0,2.1,'11111222,11111222,11111222' 
LOOP,urn:ioos:station:wmo:lopl1:1,2013-07-02T01:16:00Z,28.8850,-90.0250,10.0,0.9,343.0,2.1,'11111222,11111222,11111222' 
LOOP,urn:ioos:station:wmo:lopl1:1,2013-07-02T01:31:00Z,28.8850,-90.0250,10.0,0.9,337.0,1.6,'11111222,11111222,11111222' 
LOOP,urn:ioos:station:wmo:lopl1:1,2013-07-02T01:46:00Z,28.8850,-90.0250,10.0,1.3,25.0,1.7,'11111222,11111222,11111222' 
LOOP,urn:ioos:station:wmo:lopl1:1,2013-07-02T02:01:00Z,28.8850,-90.0250,10.0,2.0,61.0,2.5,'11111222,11111222,11111222' 
LOOP,urn:ioos:station:wmo:lopl1:1,2013-07-02T02:16:00Z,28.8850,-90.0250,10.0,1.3,31.0,1.9,'11111222,11111222,11111222' 
LOOP,urn:ioos:station:wmo:lopl1:1,2013-07-02T02:31:00Z,28.8850,-90.0250,10.0,1.3,38.0,1.9,'11111222,11111222,11111222' 
LOOP,urn:ioos:station:wmo:lopl1:1,2013-07-02T02:46:00Z,28.8850,-90.0250,10.0,0.9,61.0,1.4,'11111222,11111222,11111222' 
LOOP,urn:ioos:station:wmo:lopl1:1,2013-07-02T03:01:00Z,28.8850,-90.0250,10.0,1.1,74.0,1.5,'11111222,11111222,11111222' 
LOOP,urn:ioos:station:wmo:lopl1:1,2013-07-02T03:16:00Z,28.8850,-90.0250,10.0,0.7,74.0,1.0,'11111222,11111222,11111222' 
LOOP,urn:ioos:station:wmo:lopl1:1,2013-07-02T03:31:00Z,28.8850,-90.0250,10.0,1.0,150.0,1.6,'11111222,11111222,11111222' 
LOOP,urn:ioos:station:wmo:lopl1:1,2013-07-02T03:46:00Z,28.8850,-90.0250,10.0,0.8,134.0,1.3,'11111222,11111222,11111222' 
LOOP,urn:ioos:station:wmo:lopl1:1,2013-07-02T04:01:00Z,28.8850,-90.0250,10.0,0.8,130.0,1.3,'11111222,11111222,11111222' 
LOOP,urn:ioos:station:wmo:lopl1:1,2013-07-02T04:21:00Z,28.8850,-90.0250,10.0,0.7,96.0,1.0,'11111222,11111222,11111222' 
LOOP,urn:ioos:station:wmo:lopl1:1,2013-07-02T04:36:00Z,28.8850,-90.0250,10.0,1.0,110.0,1.3,'11111222,11111222,11111222' 
LOOP,urn:ioos:station:wmo:lopl1:1,2013-07-02T04:51:00Z,28.8850,-90.0250,10.0,1.0,79.0,1.4,'11111222,11111222,11111222' 
LOOP,urn:ioos:station:wmo:lopl1:1,2013-07-02T05:06:00Z,28.8850,-90.0250,10.0,1.1,108.0,1.3,'11111222,11111222,11111222' 
LOOP,urn:ioos:station:wmo:lopl1:1,2013-07-02T05:21:00Z,28.8850,-90.0250,10.0,0.4,-9999.0,0.7,'11111222,99999999,11111222' 
LOOP,urn:ioos:station:wmo:lopl1:1,2013-07-02T05:36:00Z,28.8850,-90.0250,10.0,1.8,-9999.0,2.4,'11111222,99999999,11111222' 
LOOP,urn:ioos:station:wmo:lopl1:1,2013-07-02T05:51:00Z,28.8850,-90.0250,10.0,1.6,-9999.0,2.3,'11111222,99999999,11111222' 
LOOP,urn:ioos:station:wmo:lopl1:1,2013-07-02T06:06:00Z,28.8850,-90.0250,10.0,2.3,-9999.0,2.7,'11111222,99999999,11111222' 
LOOP,urn:ioos:station:wmo:lopl1:1,2013-07-02T06:21:00Z,28.8850,-90.0250,10.0,2.1,-9999.0,2.8,'11111222,99999999,11111222' 
LOOP,urn:ioos:station:wmo:lopl1:1,2013-07-02T06:36:00Z,28.8850,-90.0250,10.0,1.7,-9999.0,2.1,'11111222,99999999,11111222' 
LOOP,urn:ioos:station:wmo:lopl1:1,2013-07-02T06:51:00Z,28.8850,-90.0250,10.0,0.8,-9999.0,1.2,'11111222,99999999,11111222' 
LOOP,urn:ioos:station:wmo:lopl1:1,2013-07-02T07:06:00Z,28.8850,-90.0250,10.0,0.7,-9999.0,1.0,'11111222,99999999,11111222' 
LOOP,urn:ioos:station:wmo:lopl1:1,2013-07-02T07:21:00Z,28.8850,-90.0250,10.0,0.5,-9999.0,0.9,'11111222,99999999,11111222' 
LOOP,urn:ioos:station:wmo:lopl1:1,2013-07-02T07:36:00Z,28.8850,-90.0250,10.0,1.0,-9999.0,1.4,'11111222,99999999,11111222' 
LOOP,urn:ioos:station:wmo:lopl1:1,2013-07-02T07:51:00Z,28.8850,-90.0250,10.0,2.6,-9999.0,4.1,'11111222,99999999,11111222' 
LOOP,urn:ioos:station:wmo:lopl1:1,2013-07-02T08:06:00Z,28.8850,-90.0250,10.0,2.3,-9999.0,3.1,'11111222,99999999,11111222' 
LOOP,urn:ioos:station:wmo:lopl1:1,2013-07-02T08:21:00Z,28.8850,-90.0250,10.0,2.3,-9999.0,3.0,'11111222,99999999,11111222' 
LOOP,urn:ioos:station:wmo:lopl1:1,2013-07-02T08:36:00Z,28.8850,-90.0250,10.0,2.1,-9999.0,3.3,'11111222,99999999,11111222' 
LOOP,urn:ioos:station:wmo:lopl1:1,2013-07-02T08:51:00Z,28.8850,-90.0250,10.0,1.6,-9999.0,2.4,'11111222,99999999,11111222' 
LOOP,urn:ioos:station:wmo:lopl1:1,2013-07-02T09:06:00Z,28.8850,-90.0250,10.0,1.6,-9999.0,2.5,'11111222,99999999,11111222' 
LOOP,urn:ioos:station:wmo:lopl1:1,2013-07-02T09:21:00Z,28.8850,-90.0250,10.0,2.0,-9999.0,3.0,'11111222,99999999,11111222' 
LOOP,urn:ioos:station:wmo:lopl1:1,2013-07-02T09:36:00Z,28.8850,-90.0250,10.0,2.5,-9999.0,3.8,'11111222,99999999,11111222' 
LOOP,urn:ioos:station:wmo:lopl1:1,2013-07-02T09:51:00Z,28.8850,-90.0250,10.0,2.1,-9999.0,3.3,'11111222,99999999,11111222' 
LOOP,urn:ioos:station:wmo:lopl1:1,2013-07-02T10:06:00Z,28.8850,-90.0250,10.0,1.8,-9999.0,2.5,'11111222,99999999,11111222' 
LOOP,urn:ioos:station:wmo:lopl1:1,2013-07-02T10:21:00Z,28.8850,-90.0250,10.0,1.7,-9999.0,2.5,'11111222,99999999,11111222' 
LOOP,urn:ioos:station:wmo:lopl1:1,2013-07-02T10:36:00Z,28.8850,-90.0250,10.0,2.3,-9999.0,3.3,'11111222,99999999,11111222' 
LOOP,urn:ioos:station:wmo:lopl1:1,2013-07-02T10:51:00Z,28.8850,-90.0250,10.0,2.0,-9999.0,2.9,'11111222,99999999,11111222' 
LOOP,urn:ioos:station:wmo:lopl1:1,2013-07-02T11:06:00Z,28.8850,-90.0250,10.0,1.7,-9999.0,2.5,'11111222,99999999,11111222' 
LOOP,urn:ioos:station:wmo:lopl1:1,2013-07-02T11:21:00Z,28.8850,-90.0250,10.0,1.6,-9999.0,2.3,'11111222,99999999,11111222' 
LOOP,urn:ioos:station:wmo:lopl1:1,2013-07-02T11:36:00Z,28.8850,-90.0250,10.0,2.2,-9999.0,2.2,'11111222,99999999,11111222' 
LOOP,urn:ioos:station:wmo:lopl1:1,2013-07-02T11:51:00Z,28.8850,-90.0250,10.0,1.3,-9999.0,1.9,'11111222,99999999,11111222' 
LOOP,urn:ioos:station:wmo:lopl1:1,2013-07-02T12:06:00Z,28.8850,-90.0250,10.0,1.4,-9999.0,2.1,'11111222,99999999,11111222' 
LOOP,urn:ioos:station:wmo:lopl1:1,2013-07-02T12:21:00Z,28.8850,-90.0250,10.0,0.4,-9999.0,1.0,'11111222,99999999,11111222' 
LOOP,urn:ioos:station:wmo:lopl1:1,2013-07-02T12:36:00Z,28.8850,-90.0250,10.0,0.6,202.0,1.4,'11111222,11111222,11111222' 
LOOP,urn:ioos:station:wmo:lopl1:1,2013-07-02T12:51:00Z,28.8850,-90.0250,10.0,0.4,43.0,0.7,'11111222,11111222,11111222' 
LOOP,urn:ioos:station:wmo:lopl1:1,2013-07-02T13:11:00Z,28.8850,-90.0250,10.0,1.9,4.0,2.3,'11111222,11111222,11111222' 
LOOP,urn:ioos:station:wmo:lopl1:1,2013-07-02T13:26:00Z,28.8850,-90.0250,10.0,2.0,6.0,3.5,'11111222,11111222,11111222' 
LOOP,urn:ioos:station:wmo:lopl1:1,2013-07-02T13:41:00Z,28.8850,-90.0250,10.0,5.2,6.0,6.3,'11111222,11111222,11111222' 
LOOP,urn:ioos:station:wmo:lopl1:1,2013-07-02T13:56:00Z,28.8850,-90.0250,10.0,5.1,15.0,6.2,'11111222,11111222,11111222' 
LOOP,urn:ioos:station:wmo:lopl1:1,2013-07-02T14:11:00Z,28.8850,-90.0250,10.0,6.1,29.0,7.2,'11111222,11111222,11111222' 
LOOP,urn:ioos:station:wmo:lopl1:1,2013-07-02T14:26:00Z,28.8850,-90.0250,10.0,5.3,30.0,6.2,'11111222,11111222,11111222' 
LOOP,urn:ioos:station:wmo:lopl1:1,2013-07-02T14:41:00Z,28.8850,-90.0250,10.0,4.7,59.0,5.8,'11111222,11111222,11111222' 
LOOP,urn:ioos:station:wmo:lopl1:1,2013-07-02T14:56:00Z,28.8850,-90.0250,10.0,6.0,87.0,6.8,'11111222,11111222,11111222' 
LOOP,urn:ioos:station:wmo:lopl1:1,2013-07-02T15:11:00Z,28.8850,-90.0250,10.0,5.7,78.0,6.2,'11111222,11111222,11111222' 
LOOP,urn:ioos:station:wmo:lopl1:1,2013-07-02T15:26:00Z,28.8850,-90.0250,10.0,5.2,103.0,5.8,'11111222,11111222,11111222' 
LOOP,urn:ioos:station:wmo:lopl1:1,2013-07-02T15:41:00Z,28.8850,-90.0250,10.0,4.6,77.0,5.4,'11111222,11111222,11111222' 
LOOP,urn:ioos:station:wmo:lopl1:1,2013-07-02T15:56:00Z,28.8850,-90.0250,10.0,3.4,77.0,3.9,'11111222,11111222,11111222' 
LOOP,urn:ioos:station:wmo:lopl1:1,2013-07-02T16:11:00Z,28.8850,-90.0250,10.0,2.6,55.0,3.4,'11111222,11111222,11111222' 
LOOP,urn:ioos:station:wmo:lopl1:1,2013-07-02T16:26:00Z,28.8850,-90.0250,10.0,3.5,66.0,4.5,'11111222,11111222,11111222' 
LOOP,urn:ioos:station:wmo:lopl1:1,2013-07-02T16:41:00Z,28.8850,-90.0250,10.0,2.7,63.0,3.7,'11111222,11111222,11111222' 
LOOP,urn:ioos:station:wmo:lopl1:1,2013-07-02T16:56:00Z,28.8850,-90.0250,10.0,3.6,38.0,4.8,'11111222,11111222,11111222' 
LOOP,urn:ioos:station:wmo:lopl1:1,2013-07-02T17:11:00Z,28.8850,-90.0250,10.0,3.3,38.0,4.8,'11111222,11111222,11111222' 
LOOP,urn:ioos:station:wmo:lopl1:1,2013-07-02T17:26:00Z,28.8850,-90.0250,10.0,3.2,57.0,4.4,'11111222,11111222,11111222' 
LOOP,urn:ioos:station:wmo:lopl1:1,2013-07-02T17:41:00Z,28.8850,-90.0250,10.0,3.1,37.0,4.3,'11111222,11111222,11111222' 
LOOP,urn:ioos:station:wmo:lopl1:1,2013-07-02T17:56:00Z,28.8850,-90.0250,10.0,3.3,58.0,4.4,'11111222,11111222,11111222' 
LOOP,urn:ioos:station:wmo:lopl1:1,2013-07-02T18:11:00Z,28.8850,-90.0250,10.0,2.7,53.0,3.4,'11111222,11111222,11111222' 
LOOP,urn:ioos:station:wmo:lopl1:1,2013-07-02T18:26:00Z,28.8850,-90.0250,10.0,3.1,44.0,4.1,'11111222,11111222,11111222' 
LOOP,urn:ioos:station:wmo:lopl1:1,2013-07-02T18:41:00Z,28.8850,-90.0250,10.0,3.2,56.0,4.2,'11111222,11111222,11111222' 
LOOP,urn:ioos:station:wmo:lopl1:1,2013-07-02T18:56:00Z,28.8850,-90.0250,10.0,3.2,88.0,3.9,'11111222,11111222,11111222' 
LOOP,urn:ioos:station:wmo:lopl1:1,2013-07-02T19:11:00Z,28.8850,-90.0250,10.0,3.7,86.0,4.6,'11111222,11111222,11111222' 
LOOP,urn:ioos:station:wmo:lopl1:1,2013-07-02T19:26:00Z,28.8850,-90.0250,10.0,3.1,69.0,3.5,'11111222,11111222,11111222' 
LOOP,urn:ioos:station:wmo:lopl1:1,2013-07-02T19:41:00Z,28.8850,-90.0250,10.0,3.0,69.0,3.7,'11111222,11111222,11111222' 
LOOP,urn:ioos:station:wmo:lopl1:1,2013-07-02T19:56:00Z,28.8850,-90.0250,10.0,2.6,69.0,3.2,'11111222,11111222,11111222' 
LOOP,urn:ioos:station:wmo:lopl1:1,2013-07-02T20:11:00Z,28.8850,-90.0250,10.0,3.5,114.0,4.2,'11111222,11111222,11111222' 
LOOP,urn:ioos:station:wmo:lopl1:1,2013-07-02T20:26:00Z,28.8850,-90.0250,10.0,3.8,128.0,4.9,'11111222,11111222,11111222' 
LOOP,urn:ioos:station:wmo:lopl1:1,2013-07-02T20:46:00Z,28.8850,-90.0250,10.0,3.8,125.0,5.0,'11111222,11111222,11111222' 
LOOP,urn:ioos:station:wmo:lopl1:1,2013-07-02T21:01:00Z,28.8850,-90.0250,10.0,3.2,114.0,4.1,'11111222,11111222,11111222' 
LOOP,urn:ioos:station:wmo:lopl1:1,2013-07-02T21:16:00Z,28.8850,-90.0250,10.0,2.9,94.0,3.4,'11111222,11111222,11111222' 
LOOP,urn:ioos:station:wmo:lopl1:1,2013-07-02T21:31:00Z,28.8850,-90.0250,10.0,3.5,101.0,4.4,'11111222,11111222,11111222' 
LOOP,urn:ioos:station:wmo:lopl1:1,2013-07-02T21:46:00Z,28.8850,-90.0250,10.0,4.3,110.0,5.4,'11111222,11111222,11111222' 
LOOP,urn:ioos:station:wmo:lopl1:1,2013-07-02T22:01:00Z,28.8850,-90.0250,10.0,3.8,107.0,4.4,'11111222,11111222,11111222' 
LOOP,urn:ioos:station:wmo:lopl1:1,2013-07-02T22:16:00Z,28.8850,-90.0250,10.0,3.9,103.0,4.8,'11111222,11111222,11111222' 
LOOP,urn:ioos:station:wmo:lopl1:1,2013-07-02T22:31:00Z,28.8850,-90.0250,10.0,4.3,105.0,5.2,'11111222,11111222,11111222' 
LOOP,urn:ioos:station:wmo:lopl1:1,2013-07-02T22:46:00Z,28.8850,-90.0250,10.0,4.1,87.0,4.7,'11111222,11111222,11111222' 
LOOP,urn:ioos:station:wmo:lopl1:1,2013-07-02T23:01:00Z,28.8850,-90.0250,10.0,4.4,104.0,5.2,'11111222,11111222,11111222' 
LOOP,urn:ioos:station:wmo:lopl1:1,2013-07-02T23:16:00Z,28.8850,-90.0250,10.0,4.2,98.0,4.8,'11111222,11111222,11111222' 
LOOP,urn:ioos:station:wmo:lopl1:1,2013-07-02T23:31:00Z,28.8850,-90.0250,10.0,4.8,99.0,5.8,'11111222,11111222,11111222' 
LOOP,urn:ioos:station:wmo:lopl1:1,2013-07-02T23:46:00Z,28.8850,-90.0250,10.0,5.7,116.0,6.5,'11111222,11111222,11111222' 
LOOP,urn:ioos:station:wmo:lopl1:1,2013-07-03T00:01:00Z,28.8850,-90.0250,10.0,6.6,120.0,7.4,'11111222,11111222,11111222' 
LOOP,urn:ioos:station:wmo:lopl1:1,2013-07-03T00:16:00Z,28.8850,-90.0250,10.0,6.9,114.0,7.9,'11111222,11111222,11111222' 
LOOP,urn:ioos:station:wmo:lopl1:1,2013-07-03T00:31:00Z,28.8850,-90.0250,10.0,6.6,119.0,7.9,'11111222,11111222,11111222' 
LOOP,urn:ioos:station:wmo:lopl1:1,2013-07-03T00:46:00Z,28.8850,-90.0250,10.0,7.1,136.0,8.5,'11111222,11111222,11111222' 
LOOP,urn:ioos:station:wmo:lopl1:1,2013-07-03T01:01:00Z,28.8850,-90.0250,10.0,7.8,139.0,8.7,'11111222,11111222,11111222' 
LOOP,urn:ioos:station:wmo:lopl1:1,2013-07-03T01:16:00Z,28.8850,-90.0250,10.0,6.9,155.0,7.9,'11111222,11111222,11111222' 
LOOP,urn:ioos:station:wmo:lopl1:1,2013-07-03T01:31:00Z,28.8850,-90.0250,10.0,6.3,175.0,8.0,'11111222,11111222,11111222' 